[[{"header":{"parameterUnit":"m.s-1","parameterCategory":1,"la1":30.2991,"la2":30.254,"lo1":-89.0895,"lo2":-89.0444,"dy":0.0017,"dx":0.0017,"nx":28,"ny":28,"refTime":"2025-06-02T03:00:00:Z","depth":0,"parameterNumber":2,"parameterNumberName":"U-component_of_WINDS"},"data":[0,0,0,0,0,0,0,0,0,0,0,0,0,0,0,0,0,0,0,0,0,0,0,0,0,0,0,0,0,0,0,0,0,0,0,0,0,0,0,0,0,0,0,0,0,0,0,0,0,0,0,0,0,0,0,0,0,0,1.508,1.508,0,1.5037,1.5036,1.5036,1.4991,1.4991,1.499,1.499,1.4944,1.4943,1.4943,0,0,0,0,0,0,0,0,0,0,0,0,0,1.5121,1.512,1.508,1.508,1.5079,1.5037,1.5036,1.5036,1.4992,1.4991,1.499,1.4989,1.4944,1.4943,1.4943,0,0,0,0,0,0,0,0,0,0,0,0,0,1.5093,1.512,1.508,1.5052,1.5049,1.5037,1.5036,1.5035,1.4992,1.4991,1.499,1.4989,1.4945,1.4944,1.4943,1.4954,0,0,1.494,1.4939,0,0,0,0,0,0,0,0,1.5094,1.5091,1.5057,1.5054,1.5051,1.5019,1.5034,1.5008,1.4992,1.5013,1.499,1.4989,1.4969,1.4966,1.496,1.4952,1.495,1.4939,1.4939,1.4938,1.4938,0,0,0,0,0,0,0,1.5096,1.5093,1.5063,1.5056,1.5053,1.504,1.5035,1.5029,1.4997,1.5012,1.5008,1.5004,1.4968,1.4961,1.4959,1.495,1.4939,1.4939,1.4938,1.4938,1.4944,1.4945,0,0,0,0,0,0,1.5103,1.5095,1.5064,1.5062,1.5071,1.504,1.5035,1.503,1.4997,1.4991,1.5005,1.5002,1.4963,1.496,1.4957,1.4965,1.4938,1.4938,1.4937,1.4943,1.4944,1.4945,0,0,0,0,0,0,1.5104,1.5101,1.5066,1.5077,1.5072,1.504,1.5035,1.5029,1.5023,1.4992,1.4986,1.5004,1.4963,1.4958,1.4954,1.4963,1.4937,1.4936,1.4942,1.4944,1.4945,1.4984,0,0,0,0,0,0,1.5105,1.5101,1.5107,1.5078,1.5071,1.5066,1.5036,1.5029,1.5022,1.5018,1.499,1.4984,1.4962,1.4956,1.4953,1.4961,1.4935,1.4941,1.4943,1.4944,1.4982,1.4987,1.4991,0,0,0,0,0,1.5107,1.512,1.5107,1.5104,1.5078,1.5066,1.5063,1.5037,1.5023,1.5026,1.5006,1.4985,1.4963,1.4956,1.4953,1.4961,1.4941,1.4942,1.4944,1.498,1.4986,1.4991,0,0,0,0,0,0,1.5152,1.5116,1.5101,1.5106,1.5089,1.5059,1.5064,1.5044,1.5031,1.5028,1.4996,1.499,1.4988,1.4974,1.4967,1.4968,1.4949,1.495,1.4977,1.4982,1.4987,1.4989,1.4935,0,0,0,0,0,1.5162,1.5157,1.5126,1.5133,1.5125,1.5096,1.509,1.5071,1.5052,1.5045,1.5024,1.5006,1.4994,1.4988,1.4976,1.498,1.4971,1.4983,1.4988,1.4991,1.4992,1.4989,1.4993,1.4951,1.4951,1.4951,0,0,1.5184,1.5164,1.5162,1.5141,1.5126,1.5119,1.509,1.5085,1.5079,1.5044,1.5038,1.5022,1.4999,1.4998,1.4997,1.4987,1.5002,1.4993,1.4997,1.4995,1.4991,1.4995,1.4999,1.4952,1.4952,1.4951,0,0,1.5219,1.5205,1.5207,1.5192,1.5169,1.5149,1.5149,1.5121,1.5108,1.5102,1.5074,1.5066,1.5048,1.5032,1.5021,1.5046,1.5025,1.5043,1.5065,1.5063,1.5066,1.5069,1.5075,1.5078,1.5045,1.5045,1.5045,0,1.5248,1.5238,1.521,1.5206,1.5196,1.5163,1.5164,1.515,1.5125,1.5118,1.5106,1.508,1.5063,1.5056,1.5061,1.5055,1.5053,1.5046,1.5068,1.5071,1.5073,1.5078,1.5081,1.5047,1.5047,1.5046,1.5046,0,1.5273,1.5266,1.5271,1.5246,1.5236,1.5235,1.5205,1.5198,1.518,1.516,1.5152,1.5129,1.5111,1.5108,1.509,1.5097,1.5091,1.5074,1.5054,1.5079,1.5084,1.5086,1.505,1.5049,1.5048,1.5048,0,0,1.5337,1.5294,1.5296,1.5283,1.5254,1.5247,1.5242,1.5224,1.5217,1.52,1.5193,1.5177,1.516,1.5148,1.5128,1.5126,1.5143,1.5109,1.5108,1.5114,1.5145,1.5157,1.516,1.5129,1.513,1.513,1.5146,0,1.5365,1.5355,1.5328,1.5326,1.5317,1.5284,1.528,1.526,1.5241,1.5229,1.5208,1.5196,1.5177,1.5168,1.5165,1.5142,1.5149,1.5141,1.5121,1.512,1.5126,1.5162,1.5175,1.5192,1.5148,1.5148,1.5149,0,1.5397,1.538,1.5377,1.5345,1.534,1.5337,1.5315,1.5305,1.5281,1.5267,1.5252,1.5229,1.522,1.5202,1.5187,1.5182,1.5172,1.5159,1.5159,1.5155,1.5135,1.5157,1.5197,1.5198,1.5152,1.5151,1.5151,0,1.5439,1.5416,1.541,1.54,1.5364,1.5361,1.5346,1.5321,1.531,1.5291,1.5283,1.5264,1.5252,1.5237,1.5208,1.5198,1.5195,1.5175,1.5181,1.5181,1.5181,1.5181,1.5217,1.5178,1.5178,1.5178,1.5178,0,1.5472,1.5471,1.5428,1.5425,1.5421,1.5389,1.5386,1.5367,1.5345,1.5335,1.5306,1.5297,1.526,1.5247,1.5224,1.5213,1.5209,1.5196,1.5189,1.5197,1.5199,1.5189,1.5187,1.5178,1.5178,1.5178,1.5178,0,1.5519,1.5491,1.5482,1.5447,1.5438,1.5436,1.5406,1.54,1.5378,1.5366,1.5361,1.5326,1.5308,1.5278,1.5252,1.5236,1.5229,1.522,1.5237,1.5233,1.5239,1.5238,1.5269,1.5271,1.5233,1.5233,1.5233,0,1.5541,1.5538,1.5503,1.5494,1.548,1.5467,1.5455,1.5423,1.5412,1.5382,1.5379,1.5358,1.534,1.5313,1.5284,1.5263,1.5252,1.5264,1.5248,1.5255,1.5249,1.5249,1.5247,1.5267,1.5268,1.5268,1.5269,0,1.5581,1.5567,1.5552,1.5531,1.5517,1.5499,1.548,1.5474,1.5437,1.5426,1.5407,1.5393,1.5364,1.5344,1.5318,1.53,1.5277,1.5274,1.5273,1.5281,1.529,1.5283,1.5245,1.5273,1.5273,1.5272,1.5272,1.5272,1.5614,1.5609,1.5583,1.5566,1.5547,1.5529,1.552,1.5497,1.5481,1.5456,1.5437,1.5419,1.5391,1.5354,1.5337,1.5321,1.5311,1.5312,1.5311,1.5311,1.5313,1.5294,1.5317,1.5316,1.5316,1.5316,1.5316,0,1.5651,1.5632,1.5617,1.5589,1.5575,1.5556,1.5532,1.5521,1.5505,1.5482,1.5464,1.5441,1.542,1.5389,1.5365,1.5358,1.5346,1.5352,1.5352,1.5347,1.5325,1.5326,1.5361,1.5361,1.5361,1.5361,1.5361,1.5361,1.5668,1.5658,1.564,1.5619,1.56,1.5582,1.5569,1.5551,1.5532,1.5507,1.549,1.547,1.5443,1.5416,1.5395,1.5386,1.5377,1.5386,1.5374,1.5353,1.5349,1.5345,1.5346,1.5385,1.5385,1.5397,1.5397,1.5398]},{"header":{"parameterUnit":"m.s-1","parameterCategory":1,"la1":30.2991,"la2":30.254,"lo1":-89.0895,"lo2":-89.0444,"dy":0.0017,"dx":0.0017,"nx":28,"ny":28,"refTime":"2025-06-02T03:00:00:Z","depth":0,"parameterNumber":3,"parameterNumberName":"V-component_of_WINDS"},"data":[0,0,0,0,0,0,0,0,0,0,0,0,0,0,0,0,0,0,0,0,0,0,0,0,0,0,0,0,0,0,0,0,0,0,0,0,0,0,0,0,0,0,0,0,0,0,0,0,0,0,0,0,0,0,0,0,0,0,2.6241,2.6241,0,2.6239,2.6239,2.6239,2.62,2.6199,2.6198,2.6197,2.6193,2.6194,2.6195,0,0,0,0,0,0,0,0,0,0,0,0,0,2.6207,2.6208,2.6241,2.6241,2.6241,2.6239,2.6239,2.6239,2.62,2.6199,2.6198,2.6196,2.6193,2.6194,2.6195,0,0,0,0,0,0,0,0,0,0,0,0,0,2.6215,2.6209,2.6241,2.6221,2.622,2.6239,2.6239,2.6239,2.62,2.6199,2.6197,2.6196,2.6193,2.6194,2.6195,2.6234,0,0,2.6199,2.62,0,0,0,0,0,0,0,0,2.6215,2.6217,2.6224,2.6223,2.6221,2.6218,2.6226,2.6237,2.6201,2.6208,2.6197,2.6195,2.6203,2.6203,2.6206,2.6233,2.6233,2.6199,2.62,2.6201,2.6201,0,0,0,0,0,0,0,2.6215,2.6217,2.624,2.6224,2.6222,2.6211,2.6211,2.6228,2.6214,2.6207,2.6204,2.6204,2.6202,2.6205,2.6206,2.6233,2.6199,2.62,2.6201,2.6202,2.6288,2.629,0,0,0,0,0,0,2.6217,2.6216,2.6241,2.624,2.6214,2.6213,2.6213,2.6221,2.6213,2.6211,2.6206,2.6203,2.6204,2.6204,2.6205,2.6247,2.6201,2.6202,2.6203,2.6287,2.6288,2.629,0,0,0,0,0,0,2.6217,2.622,2.6241,2.6228,2.6229,2.6216,2.6225,2.6221,2.6225,2.6213,2.6209,2.6212,2.6202,2.6204,2.6226,2.6247,2.6202,2.6204,2.6285,2.6287,2.6289,2.6333,0,0,0,0,0,0,2.6216,2.622,2.6235,2.6228,2.623,2.6262,2.6226,2.6222,2.6227,2.6223,2.6218,2.6215,2.6201,2.6224,2.6227,2.6247,2.6205,2.6283,2.6286,2.6289,2.6329,2.6336,2.6342,0,0,0,0,0,2.6215,2.6248,2.6236,2.6239,2.6249,2.6264,2.6265,2.6249,2.6229,2.6243,2.6235,2.6215,2.6244,2.6227,2.623,2.6251,2.6281,2.6285,2.6288,2.6326,2.6335,2.6342,0,0,0,0,0,0,2.6257,2.6246,2.6233,2.6265,2.6266,2.6257,2.6275,2.6258,2.6264,2.626,2.6239,2.6238,2.6263,2.6259,2.6241,2.6286,2.6259,2.6263,2.6287,2.6295,2.6301,2.6301,2.6206,0,0,0,0,0,2.627,2.6284,2.6273,2.6303,2.6303,2.6289,2.6295,2.6282,2.6282,2.6281,2.6275,2.6274,2.6283,2.6289,2.6296,2.6329,2.6326,2.6344,2.6351,2.6356,2.6359,2.6373,2.6381,2.6301,2.6301,2.6301,0,0,2.6298,2.6293,2.6303,2.6311,2.631,2.6322,2.629,2.6306,2.6314,2.6284,2.6304,2.6299,2.6297,2.6324,2.6335,2.6321,2.6381,2.6361,2.6365,2.6365,2.6378,2.6385,2.6392,2.6304,2.6303,2.6303,0,0,2.6353,2.6352,2.6375,2.6374,2.6373,2.6363,2.6368,2.6362,2.6357,2.6377,2.6353,2.6363,2.638,2.6378,2.6379,2.6432,2.6413,2.6435,2.6468,2.6481,2.6488,2.6493,2.6509,2.6516,2.6439,2.6439,2.6439,0,2.6387,2.6406,2.6389,2.6405,2.6408,2.6381,2.6403,2.6403,2.6404,2.6406,2.6391,2.6408,2.6405,2.643,2.6442,2.6445,2.6449,2.6435,2.6488,2.6494,2.6498,2.6513,2.652,2.6442,2.6441,2.6441,2.6441,0,2.6446,2.646,2.6478,2.6479,2.6484,2.6503,2.6487,2.6495,2.6481,2.6472,2.6492,2.6487,2.6491,2.6497,2.6484,2.6519,2.651,2.6492,2.6465,2.6509,2.6522,2.6528,2.6445,2.6444,2.6443,2.6443,0,0,2.6528,2.6518,2.6525,2.6524,2.6519,2.6529,2.6546,2.655,2.6556,2.6557,2.6569,2.6582,2.6565,2.6566,2.6553,2.6566,2.6604,2.6546,2.6545,2.6555,2.6639,2.6651,2.6658,2.6592,2.6593,2.6594,2.6638,0,2.658,2.6608,2.6592,2.6623,2.6633,2.6607,2.6621,2.6619,2.6611,2.6618,2.6609,2.6618,2.6596,2.6596,2.6607,2.6597,2.6621,2.6594,2.6601,2.6602,2.6601,2.6666,2.6679,2.6721,2.6644,2.6645,2.6646,0,2.6644,2.6647,2.6678,2.6669,2.6673,2.6686,2.6687,2.6695,2.6691,2.6684,2.6685,2.6668,2.6682,2.6657,2.6675,2.6657,2.6659,2.6654,2.6656,2.6654,2.6625,2.6664,2.6734,2.6739,2.6654,2.6654,2.6653,0,2.6697,2.6709,2.6728,2.6729,2.6719,2.6729,2.6725,2.672,2.6723,2.6724,2.6725,2.6729,2.673,2.6732,2.6715,2.6699,2.6734,2.6708,2.6727,2.6727,2.6734,2.6734,2.6804,2.674,2.674,2.674,2.6739,0,2.6755,2.6774,2.6752,2.6764,2.6784,2.6765,2.6785,2.6779,2.6774,2.6783,2.6761,2.6769,2.6748,2.6754,2.6742,2.6757,2.6758,2.6751,2.6747,2.6752,2.6753,2.6752,2.6747,2.6741,2.6741,2.674,2.674,0,2.6817,2.6804,2.6822,2.6812,2.6809,2.6824,2.6814,2.6824,2.6814,2.6825,2.6827,2.6811,2.6816,2.6801,2.6804,2.6796,2.6817,2.6809,2.6818,2.6815,2.6834,2.6831,2.6904,2.6911,2.6845,2.6846,2.6846,0,2.6854,2.6868,2.6858,2.6863,2.686,2.6868,2.687,2.6851,2.6855,2.685,2.686,2.6864,2.6865,2.6875,2.6864,2.6865,2.6856,2.6882,2.6856,2.686,2.6853,2.6852,2.6852,2.6886,2.6887,2.6888,2.6888,0,2.692,2.6912,2.6916,2.6918,2.6921,2.6922,2.6921,2.6925,2.6905,2.691,2.6915,2.6917,2.6919,2.6922,2.6921,2.6916,2.6898,2.6896,2.69,2.6904,2.6908,2.6903,2.6829,2.6894,2.6894,2.6893,2.6893,2.6893,2.6969,2.6979,2.6973,2.6978,2.6975,2.6974,2.6981,2.6972,2.6976,2.6977,2.6966,2.6973,2.6966,2.6963,2.696,2.6964,2.6952,2.6959,2.696,2.6961,2.6963,2.6909,2.6964,2.6964,2.6964,2.6964,2.6963,0,2.7031,2.7025,2.703,2.7029,2.7032,2.7016,2.7013,2.7016,2.7023,2.7019,2.7021,2.7026,2.7028,2.7016,2.7017,2.7022,2.7014,2.7023,2.7021,2.7019,2.6975,2.697,2.7029,2.7029,2.7029,2.7029,2.7029,2.7029,2.7063,2.7079,2.707,2.7083,2.7077,2.7083,2.7083,2.7081,2.7077,2.7084,2.7085,2.7078,2.707,2.7069,2.707,2.7066,2.7066,2.7078,2.7071,2.7029,2.7023,2.7017,2.7012,2.7079,2.7079,2.7114,2.7115,2.7115]}]]